Regional Weather Roundup
Issued by NWS

Home | Current Version | Previous Version | Graphics & Text | Print | Product List | Glossary On
Versions: 1 2 3 4 5 6 7 8 9 10 11 12 13 14 15 16 17 18 19 20 21 22 23 24 25 26 27 28 29 30 31 32 33 34 35 36 37 38 39 40 41 42 43 44 45 46 47 48 49 50
000
ASUS43 KDTX 181601
RWRMI
MICHIGAN HOURLY REGIONAL WEATHER ROUNDUP
NATIONAL WEATHER SERVICE DETROIT/PONTIAC MI
1200 PM EDT FRI APR 18 2014

NOTE: "FAIR" INDICATES FEW OR NO CLOUDS BELOW 12,000 FEET WITH NO
SIGNIFICANT WEATHER AND/OR OBSTRUCTION TO VISIBILITY.

MIZ047>049-052>055-059>063-066>070-074>076-081>083-181700-
SOUTHEAST LOWER MICHIGAN

CITY           SKY/WX    TMP DP  RH WIND       PRES   REMARKS
ADRIAN         MOSUNNY   59  42  53 W9        30.27F
ALMA           MOSUNNY   51  36  57 CALM      30.30R
ANN ARBOR      CLOUDY    55  43  63 W7        30.27S
BAD AXE        CLOUDY    44  32  63 NE6       30.30F
CARO           MOSUNNY   51  38  59 NE5       30.29S
DETROIT CITY   CLOUDY    56  42  59 VRB3      30.27S
DETROIT        CLOUDY    57  42  57 CALM      30.27F
FLINT          MOSUNNY   53  42  66 VRB3      30.28S
GROSSE ILE     CLOUDY    52  43  71 S7        30.26S
HILLSDALE      MOSUNNY   58  43  57 CALM      30.27S
HOWELL         PTSUNNY   52  43  72 NW3       30.27R

CITY           SKY/WX    TMP DP  RH WIND       PRES   REMARKS
JACKSON        MOSUNNY   55  43  63 W3        30.27S
LAMBERTVILLE   CLOUDY    59  41  51 SW6       30.28R
LANSING        MOSUNNY   56  38  50 CALM      30.29R
LAPEER         CLOUDY    45  41  85 E5        30.29R
MASON          PTSUNNY   54  42  64 CALM      30.28R
MONROE         PTSUNNY   57  43  58 SE6       30.26S
MT. CLEMENS    PTSUNNY   49  48  98 NE7       30.26F FOG
PONTIAC        CLOUDY    50  45  83 NW6       30.27S
PORT HOPE        N/A     39  32  76 NE6       30.30S WCI  35
PORT HURON     CLOUDY    41  37  87 NE12      30.30S
TRI CITIES     SUNNY     51  35  54 E7        30.30S
TROY           CLOUDY    53  46  79 NW3       30.28R
SAGINAW HB     SUNNY     50  34  53 SE5       30.29S
YPSILANTI      CLOUDY    59  42  53 VRB5      30.27S
$$
MIZ043>046-050>051-056>058-064>065-071>073-077>080-181700-
SOUTHWEST LOWER MICHIGAN

CITY           SKY/WX    TMP DP  RH WIND       PRES   REMARKS
BATTLE CREEK   MOSUNNY   56  39  53 N6        30.29R
BENTON HARBOR  SUNNY     45  37  73 VRB7      30.32R
BIG RAPIDS     MOSUNNY   47  35  62 CALM      30.30S
COLDWATER      PTSUNNY   58  43  57 NW6       30.28S
FREMONT        FAIR      47  35  63 NW6       30.31S
HOLLAND        PTSUNNY   53  39  59 W8        30.31R
GRAND RAPIDS   PTSUNNY   58  38  47 NW10      30.29R
IONIA          PTSUNNY   53  37  53 CALM      30.28R
KALAMAZOO      MOSUNNY   56  38  50 W6        30.29R
LUDINGTON      CLOUDY    40  32  70 N8        30.36R
MARSHALL       MOSUNNY   56  40  56 CALM      30.27S
MOUNT PLEASANT CLOUDY    49  36  61 N7        30.30R
MUSKEGON       PTSUNNY   53  35  50 NW8       30.32R
SOUTH HAVEN    MOSUNNY   47  36  66 NW9       30.32R
$$
MIZ016>042-181700-
NORTHERN LOWER MICHIGAN

CITY           SKY/WX    TMP DP  RH WIND       PRES   REMARKS
ALPENA         CLOUDY    39  30  70 NW8       30.31S WCI  33
BEAVER ISLAND  CLOUDY    37  27  69 SW10      30.35R WCI  29
BELLAIRE       CLOUDY    38  28  67 N5        30.35R WCI  34
CADILLAC       CLOUDY    40  32  71 NW6       30.30R
CHARLEVOIX     CLOUDY    35  28  76 NW8       30.39R WCI  29
FRANKFORT      CLOUDY    37  27  67 N7        30.37R WCI  32
GAYLORD        CLOUDY    35  27  72 W8        30.30S WCI  29
GRAYLING       CLOUDY    39  30  70 NW7       30.31S WCI  34
HARBOR SPRINGS CLOUDY    35  29  79 W7        30.33R WCI  29
HOUGHTON LAKE  MOSUNNY   43  32  65 NW12      30.30S
MANISTEE       CLOUDY    39  28  65 NW9       30.37R WCI  33
OSCODA         PTSUNNY   44  33  64 E8        30.29S
PELLSTON       CLOUDY    36  25  64 W12       30.34R WCI  28
ROGERS CITY    CLOUDY    37  31  79 N10       30.32S WCI  29
TRAVERSE CITY  CLOUDY    37  28  70 NE3       30.35R
$$
MIZ007>008-015-181700-
EASTERN UPPER MICHIGAN

CITY           SKY/WX    TMP DP  RH WIND       PRES   REMARKS
KINROSS        CLOUDY    34  30  86 NW14      30.30S WCI  24
MACKINAC ISLAN CLOUDY    33  28  83 W6        30.32S WCI  27
NEWBERRY       CLOUDY    34  27  75 W7        30.32R WCI  28
S. S. MARIE    CLOUDY    34  28  79 NW8       30.30S WCI  27
MUNISING         N/A     34  27  75 N12       30.36R WCI  25
$$
MIZ004>006-011>014-085-181700-
CENTRAL UPPER MICHIGAN

CITY           SKY/WX    TMP DP  RH WIND       PRES   REMARKS
MANISTIQUE     CLOUDY    35  28  74 NW13      30.34R WCI  26
ESCANABA       CLOUDY    39  23  52 N3        30.36R
MENOMINEE      CLOUDY    37  25  60 NW7       30.37R WCI  32
SAWYER-GWINN   CLOUDY    34  25  69 NW12      30.33S WCI  25
$$
MIZ001>003-009>011-084-181700-
WESTERN UPPER MICHIGAN

CITY           SKY/WX    TMP DP  RH WIND       PRES   REMARKS
IRON MOUNTAIN  CLOUDY    35  24  64 NW8       30.35R WCI  29
HOUGHTON       CLOUDY    32  26  78 NW9       30.37R WCI  24
COPPER HARBOR    N/A     32  28  85 N14       30.38R WCI  22
IRONWOOD       CLOUDY    34  21  60 CALM      30.36S
$$

ABBREVIATIONS USED IN REMARKS
   TC - TEMPERATURE IN CELSIUS
  WCI - WIND CHILL INDEX
   HX - HEAT INDEX
  VSB - VISIBILITY




USA.gov is the U.S. government's official web portal to all federal, state and local government web resources and services.